Year,Month,Day,Hour,Minute,Value (Times are PST for temperature in C)
2016,07,12,10,02,14.40
2016,07,12,10,06,14.40
2016,07,12,10,07,14.40
2016,07,12,10,08,14.40
2016,07,12,10,09,14.40
2016,07,12,10,10,14.40
2016,07,12,10,11,14.40
2016,07,12,10,12,14.40
2016,07,12,10,13,14.40
2016,07,12,10,14,14.40
2016,07,12,10,15,14.50
2016,07,12,10,16,14.50
2016,07,12,10,17,14.60
2016,07,12,10,18,14.60
2016,07,12,10,19,14.70
2016,07,12,10,20,14.80
2016,07,12,10,21,14.90
2016,07,12,10,22,15.00
2016,07,12,10,23,15.10
2016,07,12,10,24,15.20
2016,07,12,10,25,15.30
2016,07,12,10,26,15.40
2016,07,12,10,27,15.50
2016,07,12,10,28,15.60
2016,07,12,10,29,15.70
2016,07,12,10,30,15.80
2016,07,12,10,31,15.80
2016,07,12,10,32,15.90
2016,07,12,10,33,16.00
2016,07,12,10,34,16.10
2016,07,12,10,35,16.00
2016,07,12,10,36,15.90
2016,07,12,10,37,15.80
2016,07,12,10,38,15.70
2016,07,12,10,39,15.60
2016,07,12,10,40,15.60
2016,07,12,10,41,15.60
2016,07,12,10,42,15.60
2016,07,12,10,43,15.60
2016,07,12,10,44,15.60
2016,07,12,10,45,15.60
2016,07,12,10,46,15.60
2016,07,12,10,47,15.70
2016,07,12,10,48,15.70
2016,07,12,10,49,15.80
2016,07,12,10,50,15.90
2016,07,12,10,51,16.00
2016,07,12,10,52,16.10
2016,07,12,10,53,16.20
2016,07,12,10,54,16.20
2016,07,12,10,55,16.20
2016,07,12,10,56,16.20
2016,07,12,10,57,16.10
2016,07,12,10,58,16.10
2016,07,12,10,59,16.10
2016,07,12,11,00,16.00
2016,07,12,11,01,16.10
2016,07,12,11,02,16.10
2016,07,12,11,03,16.10
2016,07,12,11,04,16.20
2016,07,12,11,05,16.20
2016,07,12,11,06,16.30
2016,07,12,11,07,16.40
2016,07,12,11,08,16.50
2016,07,12,11,09,16.70
2016,07,12,11,10,16.80
2016,07,12,11,11,16.90
2016,07,12,11,12,17.10
2016,07,12,11,13,17.20
2016,07,12,11,14,17.30
2016,07,12,11,15,17.40
2016,07,12,11,16,17.40
2016,07,12,11,17,17.50
2016,07,12,11,18,17.50
2016,07,12,11,19,17.60
2016,07,12,11,20,17.70
2016,07,12,11,21,17.80
2016,07,12,11,22,17.80
2016,07,12,11,23,18.00
2016,07,12,11,24,18.10
2016,07,12,11,25,18.20
2016,07,12,11,26,18.20
2016,07,12,11,27,18.30
2016,07,12,11,28,18.30
2016,07,12,11,29,18.30
2016,07,12,11,30,18.40
2016,07,12,11,31,18.40
2016,07,12,11,32,18.60
2016,07,12,11,33,18.70
2016,07,12,11,34,18.90
2016,07,12,11,35,18.90
2016,07,12,11,36,18.90
2016,07,12,11,37,19.00
2016,07,12,11,38,19.00
2016,07,12,11,39,18.90
2016,07,12,11,40,18.70
2016,07,12,11,41,18.60
2016,07,12,11,42,18.50
2016,07,12,11,43,18.30
2016,07,12,11,44,18.30
2016,07,12,11,45,18.20
2016,07,12,11,46,18.10
2016,07,12,11,47,18.10
2016,07,12,11,48,18.10
2016,07,12,11,49,18.20
2016,07,12,11,50,18.20
2016,07,12,11,51,18.20
2016,07,12,11,52,18.20
2016,07,12,11,53,18.30
2016,07,12,11,54,18.20
2016,07,12,11,55,18.30
2016,07,12,11,56,18.30
2016,07,12,11,57,18.30
2016,07,12,11,58,18.30
2016,07,12,11,59,18.40
2016,07,12,12,00,18.50
2016,07,12,12,01,18.50
2016,07,12,12,02,18.60
2016,07,12,12,03,18.80
2016,07,12,12,04,19.00
2016,07,12,12,05,19.20
2016,07,12,12,06,19.30
2016,07,12,12,07,19.40
2016,07,12,12,08,19.50
2016,07,12,12,09,19.60
2016,07,12,12,10,19.60
2016,07,12,12,11,19.60
2016,07,12,12,12,19.70
2016,07,12,12,13,19.70
2016,07,12,12,14,19.80
2016,07,12,12,15,19.80
2016,07,12,12,16,19.80
2016,07,12,12,17,19.80
2016,07,12,12,18,19.90
2016,07,12,12,19,19.90
2016,07,12,12,20,20.00
2016,07,12,12,21,20.00
2016,07,12,12,22,20.10
2016,07,12,12,23,20.20
2016,07,12,12,24,20.20
2016,07,12,12,25,20.20
2016,07,12,12,26,20.20
2016,07,12,12,27,20.30
2016,07,12,12,28,20.30
2016,07,12,12,29,20.20
2016,07,12,12,30,20.20
2016,07,12,12,31,20.20
2016,07,12,12,32,20.30
2016,07,12,12,33,20.30
2016,07,12,12,34,20.40
2016,07,12,12,35,20.40
2016,07,12,12,36,20.40
2016,07,12,12,37,20.40
2016,07,12,12,38,20.40
2016,07,12,12,39,20.40
2016,07,12,12,40,20.30
2016,07,12,12,41,20.30
2016,07,12,12,42,20.30
2016,07,12,12,43,20.30
2016,07,12,12,44,20.30
2016,07,12,12,45,20.30
2016,07,12,12,46,20.40
2016,07,12,12,47,20.40
2016,07,12,12,48,20.40
2016,07,12,12,49,20.40
2016,07,12,12,50,20.40
2016,07,12,12,51,20.40
2016,07,12,12,52,20.40
2016,07,12,12,53,20.40
2016,07,12,12,54,20.50
2016,07,12,12,55,20.50
2016,07,12,12,56,20.50
2016,07,12,12,57,20.50
2016,07,12,12,58,20.50
2016,07,12,12,59,20.60
2016,07,12,13,00,20.60
2016,07,12,13,01,20.70
2016,07,12,13,02,20.80
2016,07,12,13,03,20.90
2016,07,12,13,04,20.90
2016,07,12,13,05,20.90
2016,07,12,13,06,20.90
2016,07,12,13,07,20.90
2016,07,12,13,08,20.90
2016,07,12,13,09,20.80
2016,07,12,13,10,20.80
2016,07,12,13,11,20.70
2016,07,12,13,12,20.70
2016,07,12,13,13,20.60
2016,07,12,13,14,20.60
2016,07,12,13,15,20.70
2016,07,12,13,16,20.70
2016,07,12,13,17,20.80
2016,07,12,13,18,20.80
2016,07,12,13,19,20.80
2016,07,12,13,20,20.80
2016,07,12,13,21,20.80
2016,07,12,13,22,20.80
2016,07,12,13,23,20.80
2016,07,12,13,24,20.80
2016,07,12,13,25,20.80
2016,07,12,13,26,20.90
2016,07,12,13,27,20.90
2016,07,12,13,28,20.90
2016,07,12,13,29,20.90
2016,07,12,13,30,20.80
2016,07,12,13,31,20.80
2016,07,12,13,32,20.80
2016,07,12,13,33,20.70
2016,07,12,13,34,20.70
2016,07,12,13,35,20.70
2016,07,12,13,36,20.70
2016,07,12,13,37,20.70
2016,07,12,13,38,20.80
2016,07,12,13,39,20.80
2016,07,12,13,40,21.00
2016,07,12,13,41,21.10
2016,07,12,13,42,21.20
2016,07,12,13,43,21.30
2016,07,12,13,44,21.30
2016,07,12,13,45,21.40
2016,07,12,13,46,21.40
2016,07,12,13,47,21.40
2016,07,12,13,48,21.40
2016,07,12,13,49,21.30
2016,07,12,13,50,21.30
2016,07,12,13,51,21.30
2016,07,12,13,52,21.30
2016,07,12,13,53,21.30
2016,07,12,13,54,21.40
2016,07,12,13,55,21.40
2016,07,12,13,56,21.30
2016,07,12,13,57,21.20
2016,07,12,13,58,21.20
2016,07,12,13,59,21.20
2016,07,12,14,00,21.10
2016,07,12,14,01,21.10
2016,07,12,14,02,21.10
2016,07,12,14,03,21.10
2016,07,12,14,04,21.10
2016,07,12,14,05,21.20
2016,07,12,14,06,21.30
2016,07,12,14,07,21.30
2016,07,12,14,08,21.40
2016,07,12,14,09,21.40
2016,07,12,14,10,21.50
2016,07,12,14,11,21.50
2016,07,12,14,12,21.50
2016,07,12,14,13,21.50
2016,07,12,14,14,21.50
2016,07,12,14,15,21.60
2016,07,12,14,16,21.60
2016,07,12,14,17,21.60
2016,07,12,14,18,21.60
2016,07,12,14,19,21.70
2016,07,12,14,20,21.70
2016,07,12,14,21,21.70
2016,07,12,14,22,21.70
2016,07,12,14,23,21.70
2016,07,12,14,24,21.70
2016,07,12,14,25,21.70
2016,07,12,14,26,21.70
2016,07,12,14,27,21.70
2016,07,12,14,28,21.70
2016,07,12,14,29,21.70
2016,07,12,14,30,21.60
2016,07,12,14,31,21.50
2016,07,12,14,32,21.50
2016,07,12,14,33,21.60
2016,07,12,14,34,21.70
2016,07,12,14,35,21.80
2016,07,12,14,36,21.70
2016,07,12,14,37,21.50
2016,07,12,14,38,21.40
2016,07,12,14,39,21.20
2016,07,12,14,40,21.10
2016,07,12,14,41,21.00
2016,07,12,14,42,20.90
2016,07,12,14,43,20.80
2016,07,12,14,44,20.80
2016,07,12,14,45,20.90
2016,07,12,14,46,20.90
2016,07,12,14,47,20.90
2016,07,12,14,48,20.90
2016,07,12,14,49,20.80
2016,07,12,14,50,20.80
2016,07,12,14,51,20.70
2016,07,12,14,52,20.60
2016,07,12,14,53,20.60
2016,07,12,14,54,20.70
2016,07,12,14,55,20.60
2016,07,12,14,56,20.60
2016,07,12,14,57,20.60
2016,07,12,14,58,20.70
2016,07,12,14,59,20.80
2016,07,12,15,00,20.70
2016,07,12,15,01,20.60
2016,07,12,15,02,20.60
2016,07,12,15,03,20.50
2016,07,12,15,04,20.40
2016,07,12,15,05,20.30
2016,07,12,15,06,20.20
2016,07,12,15,07,20.20
2016,07,12,15,08,20.20
2016,07,12,15,09,20.20
2016,07,12,15,10,20.10
2016,07,12,15,11,20.10
2016,07,12,15,12,20.00
2016,07,12,15,13,19.90
2016,07,12,15,14,19.80
2016,07,12,15,15,19.80
2016,07,12,15,16,19.80
2016,07,12,15,17,19.80
2016,07,12,15,18,19.80
2016,07,12,15,19,19.90
2016,07,12,15,20,20.00
2016,07,12,15,21,20.00
2016,07,12,15,22,20.00
2016,07,12,15,23,20.10
2016,07,12,15,24,20.10
2016,07,12,15,25,20.10
2016,07,12,15,26,20.10
2016,07,12,15,27,20.10
2016,07,12,15,28,20.20
2016,07,12,15,29,20.20
2016,07,12,15,30,20.20
2016,07,12,15,31,20.20
2016,07,12,15,32,20.10
2016,07,12,15,33,20.10
2016,07,12,15,34,20.20
2016,07,12,15,35,20.20
2016,07,12,15,36,20.20
2016,07,12,15,37,20.20
2016,07,12,15,38,20.30
2016,07,12,15,39,20.40
2016,07,12,15,40,20.50
2016,07,12,15,41,20.50
2016,07,12,15,42,20.40
2016,07,12,15,43,20.30
2016,07,12,15,44,20.20
2016,07,12,15,45,20.00
2016,07,12,15,46,19.80
2016,07,12,15,47,19.70
2016,07,12,15,48,19.60
2016,07,12,15,49,19.50
2016,07,12,15,50,19.40
2016,07,12,15,51,19.30
2016,07,12,15,52,19.30
2016,07,12,15,53,19.20
2016,07,12,15,54,19.20
2016,07,12,15,55,19.20
2016,07,12,15,56,19.20
2016,07,12,15,57,19.20
2016,07,12,15,58,19.20
2016,07,12,15,59,19.20
2016,07,12,16,00,19.20
2016,07,12,16,01,19.20
2016,07,12,16,02,19.20
2016,07,12,16,03,19.10
2016,07,12,16,04,19.10
2016,07,12,16,05,19.20
2016,07,12,16,06,19.30
2016,07,12,16,07,19.40
2016,07,12,16,08,19.60
2016,07,12,16,09,19.70
2016,07,12,16,10,19.80
2016,07,12,16,11,19.90
2016,07,12,16,12,20.10
2016,07,12,16,13,20.20
2016,07,12,16,14,20.40
2016,07,12,16,15,20.60
2016,07,12,16,16,20.70
2016,07,12,16,17,20.80
2016,07,12,16,18,20.90
2016,07,12,16,19,20.90
2016,07,12,16,20,20.90
2016,07,12,16,21,21.00
2016,07,12,16,22,21.10
2016,07,12,16,23,21.10
2016,07,12,16,24,21.00
2016,07,12,16,25,20.90
2016,07,12,16,26,20.80
2016,07,12,16,27,20.70
2016,07,12,16,28,20.70
2016,07,12,16,29,20.70
2016,07,12,16,30,20.70
2016,07,12,16,31,20.70
2016,07,12,16,32,20.70
2016,07,12,16,33,20.80
2016,07,12,16,34,20.80
2016,07,12,16,35,20.90
2016,07,12,16,36,20.90
2016,07,12,16,37,20.90
2016,07,12,16,38,20.90
2016,07,12,16,39,20.80
2016,07,12,16,40,20.70
2016,07,12,16,41,20.60
2016,07,12,16,42,20.40
2016,07,12,16,43,20.30
2016,07,12,16,44,20.20
2016,07,12,16,45,20.10
2016,07,12,16,46,19.90
2016,07,12,16,47,19.80
2016,07,12,16,48,19.70
2016,07,12,16,49,19.60
2016,07,12,16,50,19.60
2016,07,12,16,51,19.50
2016,07,12,16,52,19.50
2016,07,12,16,53,19.50
2016,07,12,16,54,19.40
2016,07,12,16,55,19.40
2016,07,12,16,56,19.30
2016,07,12,16,57,19.30
2016,07,12,16,58,19.30
2016,07,12,16,59,19.30
2016,07,12,17,00,19.40
2016,07,12,17,01,19.40
2016,07,12,17,02,19.40
2016,07,12,17,03,19.40
2016,07,12,17,04,19.40
2016,07,12,17,05,19.40
2016,07,12,17,06,19.40
2016,07,12,17,07,19.40
2016,07,12,17,08,19.30
2016,07,12,17,09,19.20
2016,07,12,17,10,19.10
2016,07,12,17,11,19.00
2016,07,12,17,12,18.90
2016,07,12,17,13,18.80
2016,07,12,17,14,18.70
2016,07,12,17,15,18.70
2016,07,12,17,16,18.60
2016,07,12,17,17,18.50
2016,07,12,17,18,18.50
2016,07,12,17,19,18.40
2016,07,12,17,20,18.40
2016,07,12,17,21,18.40
2016,07,12,17,22,18.40
2016,07,12,17,23,18.40
2016,07,12,17,24,18.40
2016,07,12,17,25,18.40
2016,07,12,17,26,18.40
2016,07,12,17,27,18.40
2016,07,12,17,28,18.40
2016,07,12,17,29,18.40
2016,07,12,17,30,18.40
2016,07,12,17,31,18.50
2016,07,12,17,32,18.50
2016,07,12,17,33,18.50
2016,07,12,17,34,18.50
2016,07,12,17,35,18.60
2016,07,12,17,36,18.60
2016,07,12,17,37,18.60
2016,07,12,17,38,18.70
2016,07,12,17,39,18.70
2016,07,12,17,40,18.70
2016,07,12,17,41,18.70
2016,07,12,17,42,18.70
2016,07,12,17,43,18.70
2016,07,12,17,44,18.70
2016,07,12,17,45,18.70
2016,07,12,17,46,18.60
2016,07,12,17,47,18.60
2016,07,12,17,48,18.50
2016,07,12,17,49,18.40
2016,07,12,17,50,18.30
2016,07,12,17,51,18.30
2016,07,12,17,52,18.30
2016,07,12,17,53,18.20
2016,07,12,17,54,18.20
2016,07,12,17,55,18.10
2016,07,12,17,56,18.10
2016,07,12,17,57,18.10
2016,07,12,17,58,18.00
2016,07,12,17,59,18.00
2016,07,12,18,00,17.90
2016,07,12,18,01,17.80
2016,07,12,18,02,17.80
2016,07,12,18,03,17.80
2016,07,12,18,04,17.80
2016,07,12,18,05,17.80
2016,07,12,18,06,17.80
2016,07,12,18,07,17.70
2016,07,12,18,08,17.70
2016,07,12,18,09,17.70
2016,07,12,18,10,17.70
2016,07,12,18,11,17.70
2016,07,12,18,12,17.70
2016,07,12,18,13,17.70
2016,07,12,18,14,17.70
2016,07,12,18,15,17.70
2016,07,12,18,16,17.70
2016,07,12,18,17,17.70
2016,07,12,18,18,17.60
2016,07,12,18,19,17.50
2016,07,12,18,20,17.50
2016,07,12,18,21,17.40
2016,07,12,18,22,17.40
2016,07,12,18,23,17.30
2016,07,12,18,24,17.30
2016,07,12,18,25,17.30
2016,07,12,18,26,17.20
2016,07,12,18,27,17.20
2016,07,12,18,28,17.20
2016,07,12,18,29,17.20
2016,07,12,18,30,17.20
2016,07,12,18,31,17.20
2016,07,12,18,32,17.20
2016,07,12,18,33,17.20
2016,07,12,18,34,17.20
2016,07,12,18,35,17.20
2016,07,12,18,36,17.20
2016,07,12,18,37,17.20
2016,07,12,18,38,17.20
2016,07,12,18,39,17.30
2016,07,12,18,40,17.30
2016,07,12,18,41,17.30
2016,07,12,18,42,17.30
2016,07,12,18,43,17.30
2016,07,12,18,44,17.30
2016,07,12,18,45,17.30
2016,07,12,18,46,17.30
2016,07,12,18,47,17.30
2016,07,12,18,48,17.30
2016,07,12,18,49,17.30
2016,07,12,18,50,17.20
2016,07,12,18,51,17.20
2016,07,12,18,52,17.20
2016,07,12,18,53,17.10
2016,07,12,18,54,17.00
2016,07,12,18,55,17.00
2016,07,12,18,56,16.90
2016,07,12,18,57,16.90
2016,07,12,18,58,16.80
2016,07,12,18,59,16.70
2016,07,12,19,00,16.70
2016,07,12,19,01,16.70
2016,07,12,19,02,16.60
2016,07,12,19,03,16.60
2016,07,12,19,04,16.60
2016,07,12,19,05,16.60
2016,07,12,19,06,16.60
2016,07,12,19,07,16.70
2016,07,12,19,08,16.60
2016,07,12,19,09,16.60
2016,07,12,19,10,16.60
2016,07,12,19,11,16.60
2016,07,12,19,12,16.60
2016,07,12,19,13,16.60
2016,07,12,19,14,16.70
2016,07,12,19,15,16.70
2016,07,12,19,16,16.70
2016,07,12,19,17,16.70
2016,07,12,19,18,16.60
2016,07,12,19,19,16.60
2016,07,12,19,20,16.60
2016,07,12,19,21,16.60
2016,07,12,19,22,16.60
2016,07,12,19,23,16.60
2016,07,12,19,24,16.60
2016,07,12,19,25,16.60
2016,07,12,19,26,16.60
2016,07,12,19,27,16.60
2016,07,12,19,28,16.50
2016,07,12,19,29,16.50
2016,07,12,19,30,16.50
2016,07,12,19,31,16.50
2016,07,12,19,32,16.50
2016,07,12,19,33,16.60
2016,07,12,19,34,16.60
2016,07,12,19,35,16.70
2016,07,12,19,36,16.70
2016,07,12,19,37,16.70
2016,07,12,19,38,16.70
2016,07,12,19,39,16.70
2016,07,12,19,40,16.80
2016,07,12,19,41,16.80
2016,07,12,19,42,16.80
2016,07,12,19,43,16.80
2016,07,12,19,44,16.80
2016,07,12,19,45,16.90
2016,07,12,19,46,16.90
2016,07,12,19,47,16.90
2016,07,12,19,48,16.90
2016,07,12,19,49,16.90
2016,07,12,19,50,16.90
2016,07,12,19,51,16.90
2016,07,12,19,52,16.90
2016,07,12,19,53,16.90
2016,07,12,19,54,16.90
2016,07,12,19,55,16.90
2016,07,12,19,56,16.90
2016,07,12,19,57,16.90
2016,07,12,19,58,16.90
2016,07,12,19,59,16.80
2016,07,12,20,00,16.80
2016,07,12,20,01,16.80
2016,07,12,20,02,16.80
2016,07,12,20,03,16.70
2016,07,12,20,04,16.70
2016,07,12,20,05,16.60
2016,07,12,20,06,16.60
2016,07,12,20,07,16.50
2016,07,12,20,08,16.40
2016,07,12,20,09,16.40
2016,07,12,20,10,16.30
2016,07,12,20,11,16.30
2016,07,12,20,12,16.20
2016,07,12,20,13,16.20
2016,07,12,20,14,16.10
2016,07,12,20,15,16.10
2016,07,12,20,16,16.00
2016,07,12,20,17,16.00
2016,07,12,20,18,16.00
2016,07,12,20,19,15.90
2016,07,12,20,20,15.90
2016,07,12,20,21,15.90
2016,07,12,20,22,15.90
2016,07,12,20,23,15.80
2016,07,12,20,24,15.80
2016,07,12,20,25,15.80
2016,07,12,20,26,15.80
2016,07,12,20,27,15.80
2016,07,12,20,28,15.80
2016,07,12,20,29,15.80
2016,07,12,20,30,15.80
2016,07,12,20,31,15.80
2016,07,12,20,32,15.80
2016,07,12,20,33,15.80
2016,07,12,20,34,15.70
2016,07,12,20,35,15.70
2016,07,12,20,36,15.70
2016,07,12,20,37,15.70
2016,07,12,20,38,15.70
2016,07,12,20,39,15.60
2016,07,12,20,40,15.60
2016,07,12,20,41,15.60
2016,07,12,20,42,15.60
2016,07,12,20,43,15.60
2016,07,12,20,44,15.50
2016,07,12,20,45,15.40
2016,07,12,20,46,15.40
2016,07,12,20,47,15.40
2016,07,12,20,48,15.30
2016,07,12,20,49,15.30
2016,07,12,20,50,15.30
2016,07,12,20,51,15.30
2016,07,12,20,52,15.20
2016,07,12,20,53,15.20
2016,07,12,20,54,15.20
2016,07,12,20,55,15.10
2016,07,12,20,56,15.10
2016,07,12,20,57,15.10
2016,07,12,20,58,15.10
2016,07,12,20,59,15.00
2016,07,12,21,00,14.90
2016,07,12,21,01,14.90
2016,07,12,21,02,14.90
2016,07,12,21,03,14.90
2016,07,12,21,04,14.90
2016,07,12,21,05,14.90
2016,07,12,21,06,14.90
2016,07,12,21,07,14.80
2016,07,12,21,08,14.80
2016,07,12,21,09,14.80
2016,07,12,21,10,14.80
2016,07,12,21,11,14.80
2016,07,12,21,12,14.80
2016,07,12,21,13,14.80
2016,07,12,21,14,14.80
2016,07,12,21,15,14.80
2016,07,12,21,16,14.80
2016,07,12,21,17,14.80
2016,07,12,21,18,14.80
2016,07,12,21,19,14.80
2016,07,12,21,20,14.80
2016,07,12,21,21,14.80
2016,07,12,21,22,14.80
2016,07,12,21,23,14.80
2016,07,12,21,24,14.80
2016,07,12,21,25,14.80
2016,07,12,21,26,14.80
2016,07,12,21,27,14.80
2016,07,12,21,28,14.70
2016,07,12,21,29,14.70
2016,07,12,21,30,14.80
2016,07,12,21,31,14.80
2016,07,12,21,32,14.80
2016,07,12,21,33,14.80
2016,07,12,21,34,14.80
2016,07,12,21,35,14.80
2016,07,12,21,36,14.80
2016,07,12,21,37,14.80
2016,07,12,21,38,14.80
2016,07,12,21,39,14.80
2016,07,12,21,40,14.80
2016,07,12,21,41,14.80
2016,07,12,21,42,14.80
2016,07,12,21,43,14.80
2016,07,12,21,44,14.80
2016,07,12,21,45,14.80
2016,07,12,21,46,14.80
2016,07,12,21,47,14.80
2016,07,12,21,48,14.80
2016,07,12,21,49,14.80
2016,07,12,21,50,14.80
2016,07,12,21,51,14.80
2016,07,12,21,52,14.80
2016,07,12,21,53,14.80
2016,07,12,21,54,14.80
2016,07,12,21,55,14.80
2016,07,12,21,56,14.80
2016,07,12,21,57,14.80
2016,07,12,21,58,14.80
2016,07,12,21,59,14.80
2016,07,12,22,00,14.80
2016,07,12,22,01,14.80
2016,07,12,22,02,14.80
2016,07,12,22,03,14.80
2016,07,12,22,04,14.80
2016,07,12,22,05,14.80
2016,07,12,22,06,14.80
2016,07,12,22,07,14.70
2016,07,12,22,08,14.70
2016,07,12,22,09,14.70
2016,07,12,22,10,14.70
2016,07,12,22,11,14.70
2016,07,12,22,12,14.70
2016,07,12,22,13,14.70
2016,07,12,22,14,14.70
2016,07,12,22,15,14.70
2016,07,12,22,16,14.70
2016,07,12,22,17,14.70
2016,07,12,22,18,14.70
2016,07,12,22,19,14.70
2016,07,12,22,20,14.70
2016,07,12,22,21,14.70
2016,07,12,22,22,14.70
2016,07,12,22,23,14.70
2016,07,12,22,24,14.70
2016,07,12,22,25,14.70
2016,07,12,22,26,14.70
2016,07,12,22,27,14.70
2016,07,12,22,28,14.70
2016,07,12,22,29,14.70
2016,07,12,22,30,14.70
2016,07,12,22,31,14.70
2016,07,12,22,32,14.70
2016,07,12,22,33,14.70
2016,07,12,22,34,14.70
2016,07,12,22,35,14.70
2016,07,12,22,36,14.60
2016,07,12,22,37,14.60
2016,07,12,22,38,14.70
2016,07,12,22,39,14.60
2016,07,12,22,40,14.60
2016,07,12,22,41,14.60
2016,07,12,22,42,14.60
2016,07,12,22,43,14.60
2016,07,12,22,44,14.60
2016,07,12,22,45,14.60
2016,07,12,22,46,14.60
2016,07,12,22,47,14.60
2016,07,12,22,48,14.60
2016,07,12,22,49,14.60
2016,07,12,22,50,14.60
2016,07,12,22,51,14.60
2016,07,12,22,52,14.60
2016,07,12,22,53,14.60
2016,07,12,22,54,14.60
2016,07,12,22,55,14.60
2016,07,12,22,56,14.60
2016,07,12,22,57,14.60
2016,07,12,22,58,14.60
2016,07,12,22,59,14.60
2016,07,12,23,00,14.60
2016,07,12,23,01,14.60
2016,07,12,23,02,14.60
2016,07,12,23,03,14.60
2016,07,12,23,04,14.60
2016,07,12,23,05,14.60
2016,07,12,23,06,14.60
2016,07,12,23,07,14.60
2016,07,12,23,08,14.60
2016,07,12,23,09,14.60
2016,07,12,23,10,14.60
2016,07,12,23,11,14.60
2016,07,12,23,12,14.60
2016,07,12,23,13,14.60
2016,07,12,23,14,14.60
2016,07,12,23,15,14.60
2016,07,12,23,16,14.60
2016,07,12,23,17,14.60
2016,07,12,23,18,14.60
2016,07,12,23,19,14.60
2016,07,12,23,20,14.60
2016,07,12,23,21,14.50
2016,07,12,23,22,14.50
2016,07,12,23,23,14.50
2016,07,12,23,24,14.50
2016,07,12,23,25,14.50
2016,07,12,23,26,14.50
2016,07,12,23,27,14.40
2016,07,12,23,28,14.40
2016,07,12,23,29,14.40
2016,07,12,23,30,14.40
2016,07,12,23,31,14.40
2016,07,12,23,32,14.40
2016,07,12,23,33,14.40
2016,07,12,23,34,14.30
2016,07,12,23,35,14.30
2016,07,12,23,36,14.30
2016,07,12,23,37,14.30
2016,07,12,23,38,14.30
2016,07,12,23,39,14.30
2016,07,12,23,40,14.30
2016,07,12,23,41,14.30
2016,07,12,23,42,14.30
2016,07,12,23,43,14.30
2016,07,12,23,44,14.30
2016,07,12,23,45,14.30
2016,07,12,23,46,14.30
2016,07,12,23,47,14.30
2016,07,12,23,48,14.30
2016,07,12,23,49,14.30
2016,07,12,23,50,14.30
2016,07,12,23,51,14.30
2016,07,12,23,52,14.40
2016,07,12,23,53,14.40
2016,07,12,23,54,14.40
2016,07,12,23,55,14.40
2016,07,12,23,56,14.40
2016,07,12,23,57,14.40
2016,07,12,23,58,14.40
2016,07,12,23,59,14.40
